EDW286P LSZH-EGHQ

Flight info

Callsign EDW286P
Flight time 1h 42m
Altitude 34000
Route VEBIT T10 TORPA DCT REKLA DCT RLP DCT ROTSI DCT AMODO DCT COHPA UM729 RESMI UN491 LGL UN502 JSY DCT LIZAD DCT LND
Aircraft A20N/M-SDE2E3FGHIRWXY/LB1

Departure

Time 2026-04-26 18:40
Airport Zürich Airport (LSZH)

Arrival

Time 2026-04-26 20:22
Airport Cornwall Airport Newquay (EGHQ)
Time Latitude Longitude Altitude Speed Heading
2026-04-26 18:10 47.45184 8.55751 1413 ft 0 kts 186°
2026-04-26 18:28 47.45191 8.55752 1412 ft 4 kts 183°
2026-04-26 18:28 47.45218 8.55751 1412 ft 4 kts 168°
2026-04-26 18:28 47.45243 8.55737 1415 ft 4 kts 144°
2026-04-26 18:29 47.45261 8.55710 1409 ft 4 kts 117°
2026-04-26 18:29 47.45270 8.55673 1408 ft 4 kts 98°
2026-04-26 18:29 47.45272 8.55633 1406 ft 4 kts 92°
2026-04-26 18:29 47.45271 8.55596 1411 ft 4 kts 60°
2026-04-26 18:30 47.45253 8.55577 1413 ft 4 kts 356°
2026-04-26 18:30 47.45227 8.55585 1410 ft 4 kts 338°
2026-04-26 18:30 47.45203 8.55601 1412 ft 2 kts 335°
2026-04-26 18:30 47.45201 8.55602 1412 ft 0 kts 335°
2026-04-26 18:33 47.45202 8.55602 1412 ft 0 kts 335°
2026-04-26 18:33 47.45215 8.55593 1411 ft 4 kts 336°
2026-04-26 18:34 47.45228 8.55586 1410 ft 4 kts 337°
2026-04-26 18:34 47.45272 8.55568 1411 ft 9 kts 347°
2026-04-26 18:34 47.45347 8.55528 1410 ft 13 kts 334°
2026-04-26 18:34 47.45441 8.55463 1403 ft 12 kts 335°
2026-04-26 18:35 47.45518 8.55410 1410 ft 14 kts 334°
2026-04-26 18:35 47.45599 8.55355 1403 ft 8 kts 337°
2026-04-26 18:35 47.45658 8.55348 1399 ft 9 kts 34°
2026-04-26 18:35 47.45670 8.55425 1400 ft 8 kts 97°
2026-04-26 18:36 47.45663 8.55512 1402 ft 9 kts 96°
2026-04-26 18:36 47.45657 8.55606 1403 ft 10 kts 95°
2026-04-26 18:36 47.45649 8.55723 1408 ft 13 kts 96°
2026-04-26 18:36 47.45638 8.55868 1411 ft 15 kts 96°
2026-04-26 18:37 47.45627 8.56031 1410 ft 17 kts 96°
2026-04-26 18:37 47.45615 8.56191 1414 ft 12 kts 96°
2026-04-26 18:37 47.45650 8.56267 1412 ft 11 kts 14°
2026-04-26 18:37 47.45726 8.56278 1414 ft 11 kts
2026-04-26 18:38 47.45803 8.56291 1415 ft 12 kts
2026-04-26 18:38 47.45897 8.56306 1413 ft 16 kts
2026-04-26 18:38 47.46014 8.56324 1411 ft 13 kts
2026-04-26 18:38 47.46104 8.56371 1416 ft 15 kts 47°
2026-04-26 18:39 47.46153 8.56425 1410 ft 5 kts 346°
2026-04-26 18:39 47.46172 8.56389 1409 ft 7 kts 309°
2026-04-26 18:39 47.46218 8.56325 1408 ft 12 kts 318°
2026-04-26 18:39 47.46440 8.56018 1399 ft 82 kts 319°
2026-04-26 18:40 47.47023 8.55223 1386 ft 143 kts 317°
2026-04-26 18:40 47.47835 8.54091 1689 ft 163 kts 316°
2026-04-26 18:40 47.48623 8.52911 2426 ft 159 kts 315°
2026-04-26 18:40 47.49429 8.51691 2840 ft 177 kts 319°
2026-04-26 18:41 47.50378 8.50457 3299 ft 189 kts 323°
2026-04-26 18:41 47.51490 8.49268 3819 ft 200 kts 329°
2026-04-26 18:41 47.52563 8.47752 4185 ft 228 kts 298°
2026-04-26 18:41 47.52770 8.47054 4447 ft 230 kts 286°
2026-04-26 18:42 47.52923 8.45810 4871 ft 237 kts 273°
2026-04-26 18:42 47.52787 8.43350 5295 ft 245 kts 257°
2026-04-26 18:42 47.52309 8.40948 6317 ft 240 kts 248°
2026-04-26 18:43 47.51822 8.38547 7083 ft 252 kts 264°
2026-04-26 18:43 47.51734 8.35828 7616 ft 272 kts 271°
2026-04-26 18:43 47.51778 8.33002 8334 ft 281 kts 272°
2026-04-26 18:43 47.51817 8.30132 9436 ft 278 kts 271°
2026-04-26 18:44 47.51822 8.27263 10370 ft 283 kts 270°
2026-04-26 18:44 47.51798 8.24258 10843 ft 303 kts 270°
2026-04-26 18:44 47.51751 8.21025 11169 ft 325 kts 269°
2026-04-26 18:44 47.51691 8.17617 11786 ft 335 kts 269°
2026-04-26 18:45 47.51624 8.14164 12645 ft 338 kts 269°
2026-04-26 18:45 47.51555 8.10681 13487 ft 341 kts 269°
2026-04-26 18:45 47.51488 8.07165 14329 ft 343 kts 269°
2026-04-26 18:45 47.51418 8.03614 15043 ft 348 kts 269°
2026-04-26 18:46 47.51347 8.00026 15806 ft 350 kts 269°
2026-04-26 18:46 47.51275 7.96410 16520 ft 354 kts 270°
2026-04-26 18:46 47.51201 7.92753 17249 ft 358 kts 270°
2026-04-26 18:46 47.51125 7.89051 17946 ft 362 kts 270°
2026-04-26 18:47 47.51047 7.85316 18615 ft 365 kts 270°
2026-04-26 18:47 47.50967 7.81547 19245 ft 368 kts 270°
2026-04-26 18:47 47.50886 7.77748 19870 ft 371 kts 270°
2026-04-26 18:47 47.50802 7.73916 20486 ft 374 kts 270°
2026-04-26 18:48 47.50717 7.70052 21086 ft 378 kts 270°
2026-04-26 18:48 47.50630 7.66147 21688 ft 381 kts 270°
2026-04-26 18:48 47.50540 7.62215 22290 ft 384 kts 270°
2026-04-26 18:48 47.50448 7.58252 22882 ft 388 kts 270°
2026-04-26 18:49 47.50355 7.54247 23469 ft 391 kts 270°
2026-04-26 18:49 47.50261 7.50214 23955 ft 395 kts 270°
2026-04-26 18:49 47.50164 7.46128 24432 ft 398 kts 270°
2026-04-26 18:49 47.50063 7.42026 24937 ft 400 kts 270°
2026-04-26 18:50 47.49960 7.37901 25417 ft 403 kts 270°
2026-04-26 18:50 47.49856 7.33745 25886 ft 406 kts 270°
2026-04-26 18:50 47.49749 7.29564 26352 ft 408 kts 270°
2026-04-26 18:50 47.49640 7.25356 26791 ft 411 kts 270°
2026-04-26 18:51 47.49530 7.21118 27234 ft 414 kts 270°
2026-04-26 18:51 47.49417 7.16858 27659 ft 416 kts 270°
2026-04-26 18:51 47.49302 7.12563 28060 ft 419 kts 270°
2026-04-26 18:51 47.49185 7.08250 28420 ft 422 kts 270°
2026-04-26 18:52 47.49064 7.03895 28753 ft 425 kts 270°
2026-04-26 18:52 47.48983 7.00995 29017 ft 427 kts 270°
2026-04-26 18:52 47.48816 6.95116 29518 ft 430 kts 270°
2026-04-26 18:52 47.48689 6.90690 29869 ft 432 kts 270°
2026-04-26 18:53 47.48559 6.86240 30213 ft 435 kts 270°
2026-04-26 18:53 47.48427 6.81755 30523 ft 437 kts 270°
2026-04-26 18:53 47.48292 6.77258 30835 ft 439 kts 270°
2026-04-26 18:53 47.48154 6.72738 31140 ft 441 kts 270°
2026-04-26 18:54 47.48016 6.68198 31474 ft 442 kts 271°
2026-04-26 18:54 47.48083 6.63667 31768 ft 441 kts 278°
2026-04-26 18:54 47.48411 6.59176 32160 ft 439 kts 279°
2026-04-26 18:54 47.48743 6.54698 32599 ft 438 kts 279°
2026-04-26 18:55 47.49065 6.50283 33001 ft 437 kts 279°
2026-04-26 18:55 47.49385 6.45827 33406 ft 436 kts 279°
2026-04-26 18:55 47.49702 6.41380 33799 ft 435 kts 279°
2026-04-26 18:55 47.50016 6.36941 34101 ft 434 kts 279°
2026-04-26 18:56 47.50635 6.28098 34163 ft 431 kts 279°
2026-04-26 18:56 47.51245 6.19292 34163 ft 430 kts 279°
2026-04-26 18:57 47.51650 6.13402 34161 ft 430 kts 279°
2026-04-26 18:57 47.52446 6.01678 34162 ft 430 kts 279°
2026-04-26 18:58 47.52941 5.94293 34162 ft 430 kts 279°
2026-04-26 18:58 47.54286 5.85850 34158 ft 422 kts 297°
2026-04-26 18:59 47.57499 5.78714 34152 ft 416 kts 314°
2026-04-26 18:59 47.61460 5.72377 34152 ft 417 kts 314°
2026-04-26 19:00 47.65358 5.66088 34165 ft 417 kts 314°
2026-04-26 19:00 47.69279 5.59743 34178 ft 417 kts 314°
2026-04-26 19:01 47.73198 5.53386 34185 ft 418 kts 314°
2026-04-26 19:01 47.77120 5.47012 34172 ft 418 kts 313°
2026-04-26 19:02 47.81036 5.40634 34178 ft 418 kts 313°
2026-04-26 19:02 47.84290 5.35319 34182 ft 418 kts 313°
2026-04-26 19:03 47.88865 5.27831 34186 ft 418 kts 313°
2026-04-26 19:03 47.92776 5.21413 34196 ft 418 kts 313°
2026-04-26 19:04 47.96681 5.14987 34194 ft 418 kts 313°
2026-04-26 19:04 48.00585 5.08549 34186 ft 418 kts 313°
2026-04-26 19:05 48.06427 4.98886 34190 ft 418 kts 313°
2026-04-26 19:06 48.10319 4.92426 34190 ft 418 kts 313°
2026-04-26 19:06 48.14209 4.85956 34200 ft 418 kts 312°
2026-04-26 19:07 48.18092 4.79481 34196 ft 418 kts 312°
2026-04-26 19:07 48.21969 4.73001 34199 ft 418 kts 312°
2026-04-26 19:08 48.25689 4.66323 34188 ft 417 kts 303°
2026-04-26 19:08 48.28029 4.58370 34184 ft 420 kts 286°
2026-04-26 19:09 48.28944 4.49680 34181 ft 422 kts 280°
2026-04-26 19:09 48.29756 4.40958 34181 ft 422 kts 280°
2026-04-26 19:10 48.30560 4.32212 34183 ft 423 kts 280°
2026-04-26 19:10 48.31347 4.23529 34194 ft 422 kts 279°
2026-04-26 19:11 48.32131 4.14788 34189 ft 422 kts 279°
2026-04-26 19:11 48.32909 4.06041 34190 ft 422 kts 279°
2026-04-26 19:12 48.33679 3.97299 34190 ft 422 kts 279°
2026-04-26 19:12 48.34443 3.88554 34191 ft 422 kts 279°
2026-04-26 19:13 48.35200 3.79805 34194 ft 422 kts 279°
2026-04-26 19:13 48.35950 3.71065 34208 ft 422 kts 279°
2026-04-26 19:14 48.36693 3.62326 34204 ft 421 kts 279°
2026-04-26 19:14 48.37429 3.53584 34199 ft 421 kts 279°
2026-04-26 19:15 48.38158 3.44849 34199 ft 421 kts 279°
2026-04-26 19:15 48.38881 3.36116 34212 ft 420 kts 279°
2026-04-26 19:16 48.39595 3.27395 34213 ft 420 kts 278°
2026-04-26 19:16 48.40301 3.18674 34208 ft 419 kts 278°
2026-04-26 19:17 48.41001 3.09969 34206 ft 419 kts 278°
2026-04-26 19:17 48.41694 3.01268 34200 ft 418 kts 278°
2026-04-26 19:18 48.42944 2.92818 34197 ft 416 kts 287°
2026-04-26 19:18 48.44563 2.84457 34201 ft 416 kts 287°
2026-04-26 19:19 48.46165 2.76088 34197 ft 416 kts 287°
2026-04-26 19:19 48.47761 2.67712 34197 ft 416 kts 286°
2026-04-26 19:20 48.49350 2.59334 34196 ft 416 kts 286°
2026-04-26 19:20 48.50938 2.50958 34205 ft 416 kts 285°
2026-04-26 19:21 48.52517 2.42562 34202 ft 416 kts 285°
2026-04-26 19:21 48.54088 2.34165 34204 ft 416 kts 285°
2026-04-26 19:22 48.55656 2.25750 34207 ft 416 kts 285°
2026-04-26 19:22 48.57144 2.17305 34211 ft 416 kts 281°
2026-04-26 19:23 48.58340 2.08742 34208 ft 417 kts 281°
2026-04-26 19:23 48.59549 2.00164 34208 ft 418 kts 281°
2026-04-26 19:24 48.60749 1.91573 34214 ft 418 kts 281°
2026-04-26 19:24 48.62536 1.78672 34223 ft 418 kts 281°
2026-04-26 19:25 48.63522 1.71508 34219 ft 419 kts 280°
2026-04-26 19:25 48.64899 1.61431 34232 ft 419 kts 280°
2026-04-26 19:26 48.66064 1.52799 34238 ft 419 kts 280°
2026-04-26 19:26 48.67223 1.44164 34235 ft 419 kts 280°
2026-04-26 19:27 48.68374 1.35539 34235 ft 418 kts 280°
2026-04-26 19:27 48.69521 1.26902 34230 ft 421 kts 279°
2026-04-26 19:28 48.70669 1.18201 34230 ft 424 kts 279°
2026-04-26 19:28 48.71816 1.09453 34229 ft 424 kts 279°
2026-04-26 19:29 48.72958 1.00692 34231 ft 424 kts 279°
2026-04-26 19:29 48.74092 0.91935 34233 ft 424 kts 279°
2026-04-26 19:30 48.75221 0.83165 34220 ft 424 kts 280°
2026-04-26 19:30 48.76159 0.75872 34222 ft 425 kts 280°
2026-04-26 19:31 48.77473 0.65592 34228 ft 425 kts 280°
2026-04-26 19:31 48.78591 0.56787 34227 ft 426 kts 279°
2026-04-26 19:32 48.79967 0.48046 34228 ft 427 kts 284°
2026-04-26 19:32 48.81545 0.39375 34230 ft 425 kts 284°
2026-04-26 19:33 48.83101 0.30747 34233 ft 424 kts 284°
2026-04-26 19:33 48.84651 0.22108 34232 ft 424 kts 284°
2026-04-26 19:34 48.86195 0.13461 34230 ft 424 kts 284°
2026-04-26 19:34 48.87733 0.04814 34230 ft 424 kts 284°
2026-04-26 19:35 48.89265 -0.03842 34234 ft 423 kts 283°
2026-04-26 19:35 48.90781 -0.12448 34233 ft 421 kts 283°
2026-04-26 19:36 48.91782 -0.18159 34236 ft 422 kts 283°
2026-04-26 19:36 48.93785 -0.29696 34237 ft 422 kts 283°
2026-04-26 19:37 48.95241 -0.38340 34236 ft 421 kts 283°
2026-04-26 19:37 48.96691 -0.46982 34239 ft 422 kts 283°
2026-04-26 19:38 48.98139 -0.55639 34241 ft 422 kts 283°
2026-04-26 19:38 48.99582 -0.64298 34240 ft 422 kts 283°
2026-04-26 19:39 49.01018 -0.72963 34244 ft 422 kts 283°
2026-04-26 19:39 49.02448 -0.81635 34245 ft 422 kts 283°
2026-04-26 19:40 49.03872 -0.90314 34239 ft 422 kts 282°
2026-04-26 19:40 49.05290 -0.99000 34238 ft 422 kts 282°
2026-04-26 19:41 49.06700 -1.07690 34236 ft 422 kts 282°
2026-04-26 19:41 49.07631 -1.13446 34243 ft 423 kts 282°
2026-04-26 19:42 49.09505 -1.25039 34237 ft 423 kts 282°
2026-04-26 19:42 49.10917 -1.33743 34234 ft 423 kts 282°
2026-04-26 19:43 49.12323 -1.42455 34221 ft 423 kts 281°
2026-04-26 19:43 49.13721 -1.51186 34222 ft 423 kts 281°
2026-04-26 19:44 49.15112 -1.59919 34222 ft 423 kts 281°
2026-04-26 19:44 49.16274 -1.67249 34226 ft 424 kts 281°
2026-04-26 19:45 49.17646 -1.75942 34229 ft 424 kts 281°
2026-04-26 19:45 49.19022 -1.84697 34224 ft 424 kts 281°
2026-04-26 19:46 49.20393 -1.93482 34233 ft 425 kts 281°
2026-04-26 19:46 49.21758 -2.02278 34236 ft 425 kts 280°
2026-04-26 19:47 49.22938 -2.09642 34234 ft 426 kts 282°
2026-04-26 19:47 49.24716 -2.19820 34234 ft 426 kts 282°
2026-04-26 19:48 49.26235 -2.28595 34238 ft 427 kts 281°
2026-04-26 19:48 49.27731 -2.37381 34239 ft 427 kts 281°
2026-04-26 19:49 49.29219 -2.46186 34243 ft 427 kts 281°
2026-04-26 19:49 49.30700 -2.54989 34244 ft 427 kts 281°
2026-04-26 19:50 49.32174 -2.63795 34245 ft 427 kts 281°
2026-04-26 19:50 49.33644 -2.72611 34238 ft 427 kts 280°
2026-04-26 19:51 49.35108 -2.81442 34221 ft 427 kts 280°
2026-04-26 19:51 49.36563 -2.90277 34237 ft 427 kts 280°
2026-04-26 19:52 49.38013 -2.99122 34237 ft 427 kts 280°
2026-04-26 19:52 49.39458 -3.07977 34237 ft 428 kts 280°
2026-04-26 19:53 49.40898 -3.16841 34227 ft 428 kts 279°
2026-04-26 19:53 49.42331 -3.25728 34223 ft 429 kts 279°
2026-04-26 19:54 49.43759 -3.34631 34233 ft 430 kts 279°
2026-04-26 19:54 49.45184 -3.43554 34238 ft 430 kts 279°
2026-04-26 19:55 49.46603 -3.52485 34250 ft 431 kts 279°
2026-04-26 19:55 49.48019 -3.61441 34230 ft 431 kts 278°
2026-04-26 19:56 49.48724 -3.65917 33969 ft 429 kts 278°
2026-04-26 19:56 49.49423 -3.70376 33696 ft 429 kts 278°
2026-04-26 19:56 49.50120 -3.74844 33415 ft 431 kts 278°
2026-04-26 19:56 49.50820 -3.79337 33152 ft 432 kts 278°
2026-04-26 19:57 49.51519 -3.83835 32904 ft 433 kts 278°
2026-04-26 19:57 49.52217 -3.88338 32631 ft 433 kts 278°
2026-04-26 19:57 49.52917 -3.92858 32364 ft 434 kts 278°
2026-04-26 19:57 49.53606 -3.97323 32115 ft 435 kts 278°
2026-04-26 19:58 49.54314 -4.01928 31859 ft 436 kts 278°
2026-04-26 19:58 49.55004 -4.06419 31632 ft 439 kts 278°
2026-04-26 19:58 49.55706 -4.11013 31381 ft 441 kts 278°
2026-04-26 19:58 49.56409 -4.15619 31132 ft 442 kts 278°
2026-04-26 19:59 49.57109 -4.20224 30886 ft 442 kts 278°
2026-04-26 19:59 49.57808 -4.24829 30633 ft 441 kts 278°
2026-04-26 19:59 49.58584 -4.29400 30396 ft 443 kts 283°
2026-04-26 19:59 49.59714 -4.33830 30127 ft 447 kts 290°
2026-04-26 20:00 49.61201 -4.38048 29850 ft 449 kts 297°
2026-04-26 20:00 49.62918 -4.42067 29569 ft 448 kts 298°
2026-04-26 20:00 49.64631 -4.46072 29290 ft 446 kts 298°
2026-04-26 20:00 49.66330 -4.50062 29029 ft 444 kts 298°
2026-04-26 20:01 49.68016 -4.54033 28786 ft 442 kts 298°
2026-04-26 20:01 49.69698 -4.58000 28515 ft 441 kts 298°
2026-04-26 20:01 49.71377 -4.61964 28059 ft 440 kts 298°
2026-04-26 20:01 49.73048 -4.65918 27476 ft 438 kts 298°
2026-04-26 20:02 49.74706 -4.69841 26890 ft 434 kts 298°
2026-04-26 20:02 49.76347 -4.73730 26317 ft 429 kts 298°
2026-04-26 20:02 49.77965 -4.77571 25743 ft 425 kts 298°
2026-04-26 20:02 49.79029 -4.80101 25369 ft 422 kts 298°
2026-04-26 20:03 49.81156 -4.85166 24602 ft 417 kts 298°
2026-04-26 20:03 49.82708 -4.88869 24020 ft 415 kts 298°
2026-04-26 20:03 49.84290 -4.92650 23419 ft 410 kts 298°
2026-04-26 20:03 49.85809 -4.96282 22865 ft 404 kts 298°
2026-04-26 20:04 49.87326 -4.99917 22304 ft 399 kts 299°
2026-04-26 20:04 49.88824 -5.03510 21753 ft 394 kts 299°
2026-04-26 20:04 49.90302 -5.07062 21207 ft 390 kts 299°
2026-04-26 20:04 49.91764 -5.10578 20668 ft 386 kts 299°
2026-04-26 20:05 49.93211 -5.14065 20101 ft 382 kts 300°
2026-04-26 20:05 49.94642 -5.17514 19557 ft 378 kts 300°
2026-04-26 20:05 49.96058 -5.20935 19024 ft 375 kts 300°
2026-04-26 20:05 49.97465 -5.24338 18450 ft 373 kts 300°
2026-04-26 20:06 49.98860 -5.27714 17910 ft 369 kts 300°
2026-04-26 20:06 50.00236 -5.31045 17372 ft 364 kts 300°
2026-04-26 20:06 50.01594 -5.34339 16865 ft 360 kts 300°
2026-04-26 20:06 50.02937 -5.37601 16342 ft 356 kts 300°
2026-04-26 20:07 50.04269 -5.40838 15862 ft 353 kts 300°
2026-04-26 20:07 50.05585 -5.44044 15355 ft 350 kts 300°
2026-04-26 20:07 50.06890 -5.47224 14857 ft 348 kts 300°
2026-04-26 20:07 50.08187 -5.50389 14349 ft 345 kts 300°
2026-04-26 20:08 50.09474 -5.53533 13832 ft 343 kts 300°
2026-04-26 20:08 50.10749 -5.56646 13336 ft 339 kts 301°
2026-04-26 20:08 50.12354 -5.59340 12862 ft 348 kts 322°
2026-04-26 20:08 50.14549 -5.61005 12404 ft 355 kts 343°
2026-04-26 20:09 50.16990 -5.61341 11947 ft 353 kts
2026-04-26 20:09 50.19327 -5.60300 11466 ft 350 kts 27°
2026-04-26 20:09 50.21254 -5.58029 10940 ft 348 kts 49°
2026-04-26 20:09 50.22726 -5.55060 10427 ft 345 kts 54°
2026-04-26 20:10 50.24148 -5.52064 9900 ft 342 kts 54°
2026-04-26 20:10 50.25555 -5.49091 9418 ft 338 kts 54°
2026-04-26 20:10 50.26942 -5.46152 8899 ft 335 kts 54°
2026-04-26 20:10 50.28317 -5.43232 8432 ft 331 kts 54°
2026-04-26 20:11 50.29651 -5.40398 8273 ft 317 kts 54°
2026-04-26 20:11 50.30930 -5.37683 8135 ft 303 kts 54°
2026-04-26 20:11 50.32152 -5.35085 8020 ft 290 kts 54°
2026-04-26 20:12 50.34442 -5.30213 7796 ft 265 kts 54°
2026-04-26 20:12 50.35510 -5.27936 7692 ft 254 kts 54°
2026-04-26 20:12 50.36534 -5.25759 7559 ft 244 kts 54°
2026-04-26 20:12 50.37530 -5.23642 7337 ft 239 kts 54°
2026-04-26 20:13 50.38510 -5.21544 7037 ft 239 kts 54°
2026-04-26 20:13 50.39492 -5.19444 6733 ft 239 kts 54°
2026-04-26 20:13 50.40458 -5.17353 6494 ft 235 kts 55°
2026-04-26 20:13 50.41394 -5.15267 6207 ft 234 kts 55°
2026-04-26 20:14 50.42301 -5.13165 5904 ft 232 kts 64°
2026-04-26 20:14 50.42626 -5.10740 5620 ft 228 kts 96°
2026-04-26 20:14 50.42079 -5.08457 5300 ft 226 kts 129°
2026-04-26 20:14 50.40967 -5.06731 4999 ft 225 kts 138°
2026-04-26 20:15 50.39804 -5.05102 4737 ft 223 kts 138°
2026-04-26 20:15 50.38651 -5.03498 4486 ft 221 kts 138°
2026-04-26 20:15 50.37499 -5.01903 4213 ft 220 kts 138°
2026-04-26 20:15 50.36356 -5.00333 3997 ft 216 kts 138°
2026-04-26 20:16 50.35240 -4.98820 3742 ft 215 kts 138°
2026-04-26 20:16 50.34104 -4.97286 3437 ft 217 kts 138°
2026-04-26 20:16 50.32969 -4.95765 3227 ft 213 kts 138°
2026-04-26 20:16 50.31842 -4.94278 2967 ft 211 kts 138°
2026-04-26 20:17 50.30724 -4.92787 2704 ft 209 kts 135°
2026-04-26 20:17 50.29976 -4.90915 2404 ft 204 kts 100°
2026-04-26 20:17 50.30141 -4.88755 2184 ft 199 kts 59°
2026-04-26 20:17 50.30732 -4.87745 2244 ft 186 kts 31°
2026-04-26 20:18 50.32324 -4.86939 2469 ft 182 kts 14°
2026-04-26 20:18 50.33561 -4.86552 2612 ft 174 kts 13°
2026-04-26 20:18 50.34707 -4.86297 2550 ft 162 kts
2026-04-26 20:18 50.35848 -4.86257 2532 ft 165 kts
2026-04-26 20:19 50.36979 -4.86262 2424 ft 155 kts
2026-04-26 20:19 50.38001 -4.86422 2158 ft 143 kts 351°
2026-04-26 20:19 50.38906 -4.86987 1885 ft 138 kts 330°
2026-04-26 20:19 50.39609 -4.87946 1645 ft 133 kts 315°
2026-04-26 20:20 50.40165 -4.89128 1474 ft 135 kts 304°
2026-04-26 20:20 50.40619 -4.90410 1385 ft 134 kts 302°
2026-04-26 20:20 50.41083 -4.91685 1254 ft 135 kts 303°
2026-04-26 20:20 50.41560 -4.92916 1101 ft 132 kts 305°
2026-04-26 20:21 50.42047 -4.94162 946 ft 132 kts 304°
2026-04-26 20:21 50.42502 -4.95377 773 ft 128 kts 304°
2026-04-26 20:21 50.42958 -4.96571 638 ft 130 kts 303°
2026-04-26 20:21 50.43418 -4.97787 471 ft 130 kts 301°
2026-04-26 20:22 50.43870 -4.98992 368 ft 123 kts 303°
2026-04-26 20:22 50.44188 -4.99826 351 ft 51 kts 298°
2026-04-26 20:22 50.44325 -5.00194 334 ft 22 kts 299°
2026-04-26 20:22 50.44407 -5.00415 330 ft 25 kts 301°
2026-04-26 20:23 50.44504 -5.00671 321 ft 29 kts 301°
2026-04-26 20:23 50.44581 -5.00876 315 ft 20 kts 301°
2026-04-26 20:23 50.44647 -5.01050 312 ft 14 kts 301°
2026-04-26 20:23 50.44688 -5.01151 310 ft 8 kts 314°
2026-04-26 20:24 50.44750 -5.01140 310 ft 11 kts 27°
2026-04-26 20:24 50.44801 -5.01049 312 ft 12 kts 66°
2026-04-26 20:24 50.44799 -5.00919 314 ft 13 kts 111°
2026-04-26 20:24 50.44755 -5.00797 317 ft 12 kts 120°
2026-04-26 20:25 50.44721 -5.00707 318 ft 9 kts 120°
2026-04-26 20:25 50.44699 -5.00648 320 ft 10 kts 121°
2026-04-26 20:25 50.44653 -5.00527 322 ft 7 kts 121°
2026-04-26 20:25 50.44640 -5.00461 324 ft 7 kts 82°
2026-04-26 20:26 50.44649 -5.00405 325 ft 4 kts 73°
2026-04-26 20:26 50.44652 -5.00390 326 ft 0 kts 75°